1536703200.5,49613,17.31,74778.5,5.61,-0.85,-3.31,0,*4A
1536703201.7,49614,17.31,74782.0,5.63,-0.81,-3.55,0,*49
1536703202.93,49615,17.31,74776.8,5.61,-0.81,-3.59,0,*46
1536703204.15,49616,17.31,74782.5,5.61,-0.81,-3.67,0,*48
1536703205.36,49617,17.31,74776.5,5.61,-0.73,-3.75,0,*47
1536703206.56,49618,17.31,74784.5,5.61,-0.73,-3.83,0,*41
1536703207.74,49619,17.31,74780.3,5.63,-0.57,-3.83,0,*44
1536703208.95,49620,17.31,74782.8,5.61,-0.69,-4.13,0,*4F
1536703210.17,49621,17.31,74780.0,5.61,-0.85,-4.33,0,*4E
1536703211.4,49622,17.31,74784.5,5.61,-0.85,-4.37,0,*49
1536703212.63,49623,17.31,74780.0,5.61,-1.09,-4.49,0,*74
1536703213.85,49624,17.31,74776.3,5.61,-1.17,-4.53,0,*77
1536703215.09,49625,17.31,74776.8,5.59,-1.39,-4.93,0,*7D
1536703216.36,49626,17.31,74782.5,5.61,-1.47,-5.03,0,*74
1536703217.59,49627,17.31,74776.5,5.61,-1.59,-5.15,0,*7D
1536703218.82,49628,17.31,74780.8,5.61,-1.79,-5.27,0,*71
1536703220.04,49629,17.31,74782.8,5.59,-1.87,-5.39,0,*75
1536703221.27,49630,17.31,74780.0,5.61,-2.11,-5.39,0,*7A
1536703222.46,49631,17.31,74780.5,5.59,-2.15,-5.39,0,*74
1536703223.64,49632,17.31,74784.0,5.59,-2.27,-5.39,0,*76
1536703224.86,49633,17.31,74784.8,5.59,-2.23,-5.07,0,*7E
1536703226.1,49634,17.31,74782.3,5.61,-2.07,-4.65,0,*71
1536703227.31,49635,17.31,74782.3,5.61,-1.79,-4.21,0,*7A
1536703228.49,49636,17.31,74782.0,5.59,-1.63,-3.79,0,*73
1536703229.7,49637,17.31,74782.8,5.59,-1.59,-3.59,0,*79
1536703230.9,49638,17.31,74784.8,5.59,-1.63,-3.51,0,*77
1536703232.13,49639,17.31,74780.0,5.57,-1.75,-3.47,0,*78
1536703233.32,49640,17.31,74784.5,5.59,-1.75,-3.27,0,*7E
1536703234.5,49641,17.31,74782.3,5.59,-1.63,-3.03,0,*7E
1536703235.68,49642,17.31,74782.0,5.59,-1.51,-3.03,0,*7C
1536703236.9,49643,17.31,74780.5,5.59,-1.47,-2.83,0,*73
1536703238.13,49644,17.31,74784.5,5.61,-1.43,-2.79,0,*7E
1536703239.32,49645,17.31,74780.3,5.59,-1.33,-2.83,0,*76
1536703240.5,49646,17.31,74784.5,5.59,-1.21,-2.91,0,*75
1536703241.68,49647,17.31,74780.5,5.59,-1.25,-3.23,0,*78
1536703242.91,49648,17.31,74782.8,5.59,-1.35,-3.47,0,*74
1536703244.14,49649,17.31,74780.3,5.59,-1.35,-3.47,0,*75
1536703245.35,49650,17.31,74780.8,5.59,-1.33,-3.47,0,*7B
1536703246.53,49651,17.31,74780.8,5.59,-1.25,-3.35,0,*78
1536703247.76,49652,17.31,74780.3,5.57,-1.09,-3.11,0,*7D
1536703248.97,49653,17.31,74784.3,5.57,-0.77,-2.83,0,*4E
1536703250.21,49654,17.31,74786.5,5.57,-0.37,-2.51,0,*42
1536703251.4,49655,17.31,74784.0,5.57,0.09,-2.39,0,*5D
1536703252.62,49656,17.31,74784.5,5.59,0.41,-2.59,0,*6A
1536703253.84,49657,17.31,74788.5,5.57,0.47,-3.15,0,*6A
1536703255.03,49658,17.31,74786.3,5.57,0.01,-3.87,0,*5C
1536703256.21,49659,17.31,74782.8,5.59,-0.49,-4.49,0,*47
1536703257.47,49660,17.31,74784.0,5.57,-1.09,-4.93,0,*71
1536703258.68,49661,17.31,74784.8,5.59,-1.75,-5.19,0,*76
1536703259.87,49662,17.31,74784.3,5.59,-2.35,-5.43,0,*7D
1536703261.13,49663,17.31,74790.8,5.57,-2.71,-5.93,0,*7F
1536703262.33,49664,17.31,74786.8,5.57,-3.03,-6.09,0,*7C
1536703263.58,49665,17.31,74784.0,5.59,-3.51,-6.63,0,*78
1536703264.79,49666,17.31,74788.8,5.57,-4.29,-6.77,0,*78
1536703266.02,49667,17.31,74790.0,5.57,-4.53,-7.01,0,*74
1536703267.24,49668,17.31,74784.5,5.57,-4.81,-7.53,0,*73
1536703268.5,49669,17.31,74782.8,5.57,-5.15,-7.69,0,*77
1536703269.74,49670,17.31,74784.3,5.57,-5.07,-7.53,0,*75
1536703271.0,49671,17.31,74784.5,5.57,-4.89,-7.65,0,*76
1536703272.24,49672,17.31,74788.0,5.59,-5.03,-7.91,0,*73
1536703273.5,49673,17.31,74786.0,5.57,-5.15,-7.95,0,*7F
1536703274.76,49674,17.31,74786.3,5.57,-5.19,-8.07,0,*70
1536703276.03,49675,17.31,74788.0,5.57,-5.31,-7.99,0,*73
1536703277.21,49676,17.31,74788.0,5.53,-5.47,-7.83,0,*7E
1536703278.43,49677,17.31,74784.3,5.53,-5.47,-7.61,0,*73
1536703279.67,49678,17.31,74784.5,5.57,-5.31,-7.19,0,*76
1536703280.93,49679,17.31,74784.0,5.51,-5.15,-6.93,0,*74
1536703282.13,49680,17.31,74784.0,5.53,-4.85,-6.51,0,*76
1536703283.35,49681,17.31,74786.3,5.51,-4.65,-6.31,0,*7D
1536703284.52,49682,17.31,74786.0,5.53,-4.41,-5.97,0,*75
1536703285.76,49683,17.31,74784.5,5.51,-4.13,-5.81,0,*76
1536703286.96,49684,17.31,74784.0,5.53,-3.83,-5.51,0,*70
1536703288.17,49685,17.31,74786.3,5.53,-3.59,-5.35,0,*74
1536703289.41,49686,17.31,74786.8,5.51,-3.19,-4.89,0,*77
1536703290.62,49687,17.31,74788.3,5.53,-2.95,-4.69,0,*7F
1536703291.83,49688,17.31,74790.0,5.51,-2.79,-4.33,0,*7F
1536703293.04,49689,17.31,74790.0,5.51,-2.43,-3.95,0,*7C
1536703294.27,49690,17.31,74788.0,5.51,-2.23,-3.47,0,*7D
1536703295.5,49691,17.31,74790.5,5.51,-1.95,-3.11,0,*71
1536703296.71,49692,17.31,74788.3,5.51,-1.55,-2.79,0,*71
1536703297.95,49693,17.31,74784.0,5.51,-1.21,-2.55,0,*7D
1536703299.13,49694,17.31,74788.0,5.53,-0.81,-2.43,0,*44
1536703300.36,49695,17.31,74786.0,5.51,-0.53,-2.47,0,*4C
1536703301.62,49696,17.31,74786.5,5.51,-0.23,-2.47,0,*48
1536703302.84,49697,17.31,74784.5,5.51,0.01,-2.59,0,*5B
1536703304.03,49698,17.31,74784.5,5.49,0.01,-2.75,0,*53
1536703305.2,49699,17.31,74786.5,5.49,0.09,-2.99,0,*58
1536703306.36,49700,17.31,74784.0,5.49,-0.03,-3.23,0,*7E
1536703307.59,49701,17.31,74788.0,5.51,-0.19,-3.55,0,*4C
1536703308.8,49702,17.31,74786.5,5.51,-0.41,-3.95,0,*4E
1536703310.01,49703,17.31,74788.5,5.51,-0.73,-4.37,0,*41
1536703311.2,49704,17.31,74784.0,5.49,-1.25,-4.65,0,*7A
1536703312.46,49705,17.31,74786.0,5.51,-1.47,-4.73,0,*71
1536703313.71,49706,17.31,74782.3,5.51,-1.71,-4.89,0,*72
1536703314.97,49707,17.31,74786.3,5.51,-2.03,-4.89,0,*75
1536703316.18,49708,17.31,74784.5,5.51,-2.23,-4.99,0,*79
1536703317.42,49709,17.31,74786.3,5.51,-2.31,-4.85,0,*76
1536703318.66,49710,17.31,74784.8,5.51,-2.31,-4.73,0,*77
1536703319.9,49711,17.31,74784.8,5.51,-2.31,-4.73,0,*76
1536703321.11,49712,17.31,74780.0,5.51,-2.31,-4.61,0,*76
1536703322.33,49713,17.31,74784.5,5.51,-2.31,-4.49,0,*7D
1536703323.51,49714,17.31,74782.8,5.45,-2.23,-4.53,0,*77
1536703324.75,49715,17.31,74782.3,5.51,-2.03,-4.37,0,*73
1536703325.96,49716,17.31,74780.3,5.51,-1.79,-4.45,0,*7B
1536703327.15,49717,17.31,74778.0,5.49,-1.71,-4.37,0,*7E
1536703328.36,49718,17.31,74782.3,5.49,-1.43,-4.29,0,*7F
1536703329.57,49719,17.31,74786.8,5.45,-1.13,-4.05,0,*79
1536703330.78,49720,17.31,74782.0,5.51,-0.81,-4.09,0,*40
1536703331.99,49721,17.31,74782.3,5.49,-0.85,-4.25,0,*42
1536703333.19,49722,17.31,74782.8,5.49,-0.85,-4.29,0,*4D
1536703334.39,49723,17.31,74784.0,5.49,-0.85,-4.49,0,*4A
1536703335.6,49724,17.31,74780.8,5.45,-0.85,-4.61,0,*4B
1536703336.83,49725,17.31,74784.8,5.49,-0.89,-4.81,0,*44
1536703338.06,49726,17.31,74786.3,5.45,-0.89,-4.93,0,*48
1536703339.3,49727,17.31,74786.5,5.49,-1.01,-5.03,0,*7C
1536703340.51,49728,17.31,74784.8,5.49,-1.25,-5.19,0,*7E
1536703341.73,49729,17.31,74786.8,5.45,-1.47,-5.43,0,*78
1536703342.94,49730,17.31,74790.3,5.49,-1.83,-5.51,0,*77
1536703344.13,49731,17.31,74784.3,5.45,-2.27,-5.55,0,*73
1536703345.34,49732,17.31,74786.8,5.49,-2.51,-5.55,0,*7D
1536703346.55,49733,17.31,74782.8,5.49,-2.71,-5.51,0,*7A
1536703347.77,49734,17.31,74782.5,5.45,-2.99,-5.61,0,*74
1536703348.96,49735,17.31,74784.8,5.45,-2.99,-5.51,0,*76
1536703350.14,49736,17.31,74786.8,5.49,-3.03,-5.39,0,*75
1536703351.35,49737,17.31,74786.5,5.45,-3.03,-5.31,0,*70
1536703352.57,49738,17.31,74786.3,5.45,-3.03,-5.15,0,*79
1536703353.79,49739,17.31,74786.5,5.45,-3.03,-5.03,0,*7F
1536703354.99,49740,17.31,74790.0,5.49,-2.99,-4.81,0,*74
1536703356.21,49741,17.31,74786.5,5.45,-2.87,-4.69,0,*70
1536703357.39,49742,17.31,74788.3,5.45,-2.83,-4.61,0,*7F
1536703358.6,49743,17.31,74782.8,5.45,-2.71,-4.41,0,*71
1536703359.79,49744,17.31,74784.0,5.45,-2.35,-4.29,0,*78
1536703361.0,49745,17.31,74786.8,5.45,-2.11,-4.37,0,*70
1536703362.22,49746,17.31,74782.3,5.49,-1.83,-4.29,0,*78
1536703363.4,49747,17.31,74784.0,5.45,-1.63,-4.65,0,*73
1536703364.61,49748,17.31,74786.0,5.45,-1.51,-4.89,0,*7F
1536703365.85,49749,17.31,74782.8,5.45,-1.43,-5.19,0,*75
1536703367.07,49750,17.31,74786.0,5.45,-1.33,-5.31,0,*70
1536703368.26,49751,17.31,74784.5,5.45,-1.21,-5.39,0,*7A
1536703369.5,49752,17.31,74786.8,5.45,-0.97,-5.15,0,*4B
1536703370.69,49753,17.31,74788.5,5.45,-0.61,-4.77,0,*46
1536703371.9,49754,17.31,74786.8,5.45,-0.27,-4.61,0,*44
1536703373.08,49755,17.31,74784.5,5.45,-0.15,-4.53,0,*45
1536703374.26,49756,17.31,74780.8,5.45,-0.03,-4.53,0,*71
1536703375.45,49757,17.31,74784.3,5.45,-0.11,-4.61,0,*42
1536703376.63,49758,17.31,74784.0,5.49,-0.11,-4.61,0,*41
1536703377.87,49759,17.31,74790.0,5.43,-0.19,-4.73,0,*41
1536703379.08,49760,17.31,74784.8,5.43,-0.19,-4.65,0,*4C
1536703380.29,49761,17.31,74784.5,5.45,-0.33,-5.15,0,*45
1536703381.47,49762,17.31,74784.3,5.45,-0.77,-5.43,0,*45
1536703382.7,49763,17.31,74784.3,5.45,-0.97,-5.69,0,*42
1536703383.92,49764,17.31,74786.5,5.45,-1.21,-5.69,0,*79
1536703385.13,49765,17.31,74786.8,5.45,-1.25,-5.81,0,*7A
1536703386.37,49766,17.31,74788.0,5.45,-1.35,-6.19,0,*7A
1536703387.57,49767,17.31,74786.5,5.43,-1.51,-6.51,0,*73
1536703388.84,49768,17.31,74784.3,5.43,-1.87,-7.31,0,*70
1536703390.1,49769,17.31,74784.0,5.43,-2.55,-7.99,0,*7F
1536703391.36,49770,17.31,74790.5,5.43,-3.55,-8.51,0,*7D
1536703392.57,49771,17.31,74788.8,5.43,-4.29,-8.55,0,*74
1536703393.76,49772,17.31,74786.8,5.41,-4.77,-8.59,0,*72
1536703394.99,49773,17.31,74784.8,5.43,-4.99,-8.51,0,*79
1536703396.24,49774,17.31,74784.3,5.43,-5.07,-8.37,0,*78
1536703397.44,49775,17.31,74788.8,5.43,-4.99,-8.41,0,*7E
1536703398.67,49776,17.31,74784.8,5.43,-5.19,-8.55,0,*71
1536703399.85,49777,17.31,74786.3,5.41,-5.35,-8.59,0,*70
1536703401.06,49778,17.31,74786.0,5.43,-5.35,-8.55,0,*71
1536703402.26,49779,17.31,74790.0,5.43,-5.47,-8.67,0,*74
1536703403.52,49780,17.31,74788.0,5.43,-5.65,-8.81,0,*7A
1536703404.73,49781,17.31,74788.0,5.41,-5.81,-8.85,0,*77
1536703405.95,49782,17.31,74786.8,5.41,-5.81,-8.93,0,*73
1536703407.16,49783,17.31,74788.0,5.43,-6.01,-9.19,0,*78
1536703408.39,49784,17.31,74790.8,5.41,-6.27,-9.41,0,*74
1536703409.6,49785,17.31,74788.0,5.41,-6.47,-9.53,0,*70
1536703410.82,49786,17.31,74790.8,5.41,-6.81,-9.61,0,*78
1536703412.03,49787,17.31,74786.8,5.41,-6.93,-9.75,0,*7F
1536703413.25,49788,17.31,74790.0,5.41,-6.97,-9.79,0,*78
1536703414.44,49789,17.31,74792.0,5.41,-7.19,-9.93,0,*7A
1536703415.65,49790,17.31,74792.0,5.41,-7.27,-9.89,0,*74
1536703416.86,49791,17.31,74788.0,5.41,-7.35,-9.93,0,*7D
1536703418.05,49792,17.31,74786.3,5.41,-7.49,-10.05,0,*42
1536703419.27,49793,17.31,74784.5,5.41,-7.65,-10.05,0,*4D
1536703420.47,49794,17.31,74784.3,5.41,-7.91,-9.97,0,*72
1536703421.66,49795,17.31,74790.8,5.41,-8.17,-9.97,0,*72
1536703422.85,49796,17.31,74788.3,5.41,-8.17,-9.93,0,*75
1536703424.06,49797,17.31,74788.8,5.41,-8.33,-9.83,0,*73
1536703425.27,49798,17.31,74786.8,5.41,-8.29,-9.61,0,*7B
1536703426.48,49799,17.31,74786.8,5.41,-8.21,-9.49,0,*78
1536703427.71,49800,17.31,74784.0,5.41,-8.11,-9.49,0,*74
1536703428.96,49801,17.31,74786.3,5.37,-8.07,-9.41,0,*7B
1536703430.19,49802,17.31,74788.8,5.37,-8.03,-9.45,0,*78
1536703431.43,49803,17.31,74788.3,5.41,-7.91,-9.37,0,*79
1536703432.67,49804,17.31,74788.0,5.41,-7.73,-9.41,0,*73
1536703433.91,49805,17.31,74790.3,5.37,-7.65,-9.41,0,*74
1536703435.09,49806,17.31,74790.8,5.41,-7.49,-9.23,0,*7C
1536703436.3,49807,17.31,74790.5,5.37,-7.15,-9.15,0,*70
1536703437.52,49808,17.31,74784.0,5.37,-7.01,-8.89,0,*7E
1536703438.7,49809,17.31,74790.5,5.41,-6.59,-8.75,0,*71
1536703439.91,49810,17.31,74784.8,5.37,-6.43,-8.51,0,*75
1536703441.15,49811,17.31,74786.8,5.35,-6.23,-8.29,0,*7F
1536703442.38,49812,17.31,74790.8,5.37,-5.81,-8.03,0,*7D
1536703443.6,49813,17.31,74788.3,5.37,-5.51,-7.65,0,*7E
1536703444.82,49814,17.31,74788.3,5.37,-5.31,-7.23,0,*7D
1536703446.08,49815,17.31,74790.3,5.35,-5.11,-6.93,0,*76
1536703447.27,49816,17.31,74790.0,5.37,-4.65,-6.43,0,*78
1536703448.49,49817,17.31,74788.8,5.37,-4.25,-5.93,0,*73
1536703449.7,49818,17.31,74790.0,5.37,-3.87,-5.65,0,*7A
1536703450.93,49819,17.31,74790.3,5.37,-3.39,-5.31,0,*7F
1536703452.14,49820,17.31,74790.5,5.37,-2.99,-4.93,0,*77
1536703453.37,49821,17.31,74790.0,5.37,-2.59,-4.73,0,*74
1536703454.56,49822,17.31,74792.0,5.37,-2.31,-4.29,0,*76
1536703455.78,49823,17.31,74788.0,5.41,-2.07,-4.21,0,*7B
1536703457.05,49824,17.31,74788.0,5.35,-1.87,-4.01,0,*76
1536703458.28,49825,17.31,74784.0,5.37,-1.47,-3.47,0,*7C
1536703459.46,49826,17.31,74786.8,5.41,-1.29,-3.23,0,*74
1536703460.66,49827,17.31,74786.8,5.37,-1.21,-3.27,0,*78
1536703461.87,49828,17.31,74788.8,5.37,-0.97,-3.11,0,*4E
1536703463.05,49829,17.31,74790.8,5.37,-0.73,-2.83,0,*4F
1536703464.26,49830,17.31,74790.0,5.37,-0.49,-2.59,0,*49
1536703465.47,49831,17.31,74794.0,5.37,-0.27,-2.31,0,*4E
1536703466.68,49832,17.31,74792.3,5.37,-0.15,-2.07,0,*49
1536703467.88,49833,17.31,74790.8,5.37,-0.07,-1.83,0,*74
1536703469.09,49834,17.31,74790.8,5.37,-0.03,-1.83,0,*77
1536703470.29,49835,17.31,74788.8,5.37,0.25,-1.55,0,*64
1536703471.48,49836,17.31,74790.3,5.37,0.41,-1.55,0,*65
1536703472.68,49837,17.31,74788.5,5.37,0.63,-1.55,0,*64
1536703473.91,49838,17.31,74788.8,5.41,0.79,-1.43,0,*66
1536703475.12,49839,17.31,74788.3,5.41,0.91,-1.67,0,*67
1536703476.33,49840,17.31,74790.0,5.37,0.97,-1.83,0,*64
1536703477.54,49841,17.31,74790.3,5.37,1.01,-1.87,0,*5F
1536703478.75,49842,17.31,74788.0,5.41,1.05,-2.03,0,*56
1536703479.93,49843,17.31,74790.8,5.41,1.05,-2.15,0,*50
1536703481.15,49844,17.31,74794.3,5.41,1.17,-2.31,0,*52
1536703482.36,49845,17.31,74790.5,5.41,1.01,-2.47,0,*55
1536703483.58,49846,17.31,74788.0,5.41,0.95,-2.59,0,*65
1536703484.78,49847,17.31,74790.0,5.41,0.79,-3.03,0,*68
1536703485.97,49848,17.31,74790.3,5.41,0.67,-3.19,0,*63
1536703487.19,49849,17.31,74790.5,5.41,0.55,-3.47,0,*68
1536703488.41,49850,17.31,74790.8,5.41,0.55,-3.71,0,*65
1536703489.61,49851,17.31,74790.3,5.41,0.51,-3.91,0,*6E
1536703490.81,49852,17.31,74788.3,5.41,0.41,-4.21,0,*60
1536703492.0,49853,17.31,74790.3,5.41,0.21,-4.45,0,*65
1536703493.22,49854,17.31,74788.3,5.41,0.17,-4.73,0,*62
1536703494.43,49855,17.31,74788.3,5.41,-0.07,-5.23,0,*7B
1536703495.61,49856,17.31,74786.3,5.41,-0.41,-5.51,0,*4F
1536703496.82,49857,17.31,74786.8,5.41,-0.57,-5.61,0,*4A
1536703498.04,49858,17.31,74788.0,5.41,-0.73,-5.65,0,*47
1536703499.27,49859,17.31,74788.0,5.41,-0.97,-5.89,0,*4E
1536703500.46,49860,17.31,74790.3,5.41,-1.33,-6.05,0,*7C
1536703501.67,49861,17.31,74788.0,5.41,-1.51,-5.93,0,*75
1536703502.87,49862,17.31,74788.8,5.41,-1.59,-5.81,0,*7D
1536703504.09,49863,17.31,74788.8,5.41,-1.67,-5.89,0,*79
1536703505.3,49864,17.31,74788.0,5.41,-1.71,-5.93,0,*72
1536703506.51,49865,17.31,74790.3,5.41,-1.83,-6.01,0,*76
1536703507.73,49866,17.31,74788.0,5.41,-1.71,-5.89,0,*7B
1536703508.92,49867,17.31,74790.8,5.41,-1.71,-6.05,0,*7D
1536703510.1,49868,17.31,74790.5,5.41,-1.67,-6.39,0,*7A
1536703511.28,49869,17.31,74792.8,5.41,-1.67,-6.55,0,*71
1536703512.46,49870,17.31,74792.8,5.41,-1.59,-6.73,0,*70
1536703513.67,49871,17.31,74792.0,5.41,-1.67,-7.05,0,*7C
1536703514.86,49872,17.31,74788.8,5.41,-1.71,-7.49,0,*70
1536703516.09,49873,17.31,74794.3,5.37,-1.99,-7.95,0,*77
1536703517.28,49874,17.31,74792.0,5.41,-2.27,-8.21,0,*77
1536703518.48,49875,17.31,74794.5,5.41,-2.47,-8.67,0,*72
1536703519.66,49876,17.31,74790.5,5.41,-2.83,-8.93,0,*72
1536703520.88,49877,17.31,74790.3,5.37,-3.27,-9.45,0,*77
1536703522.12,49878,17.31,74790.5,5.41,-3.55,-9.53,0,*7B
1536703523.32,49879,17.31,74790.3,5.41,-3.91,-9.79,0,*7A
1536703524.51,49880,17.31,74788.8,5.37,-4.29,-9.97,0,*79
1536703525.69,49881,17.31,74792.3,5.37,-4.49,-9.97,0,*7E
1536703526.89,49882,17.31,74794.8,5.37,-4.65,-10.01,0,*44
1536703528.11,49883,17.31,74790.5,5.37,-4.77,-10.01,0,*46
1536703529.32,49884,17.31,74794.8,5.37,-4.81,-9.93,0,*7B
1536703530.53,49885,17.31,74790.8,5.41,-4.81,-9.67,0,*70
1536703531.76,49886,17.31,74788.3,5.37,-4.73,-9.53,0,*78
1536703532.97,49887,17.31,74788.0,5.37,-4.65,-9.41,0,*7D
1536703534.16,49888,17.31,74790.8,5.37,-4.61,-9.05,0,*76
1536703535.35,49889,17.31,74794.3,5.41,-4.33,-8.85,0,*78
1536703536.54,49890,17.31,74792.5,5.37,-4.13,-8.75,0,*7C
1536703537.75,49891,17.31,74794.8,5.41,-4.01,-8.59,0,*71
1536703538.93,49892,17.31,74792.8,5.37,-3.87,-8.59,0,*7A
1536703540.12,49893,17.31,74788.3,5.37,-3.95,-8.59,0,*78
1536703541.34,49894,17.31,74794.0,5.37,-3.87,-8.51,0,*74
1536703542.53,49895,17.31,74788.5,5.41,-3.91,-8.45,0,*76
1536703543.75,49896,17.31,74794.5,5.35,-4.05,-8.41,0,*78
1536703544.96,49897,17.31,74792.3,5.35,-4.05,-8.29,0,*77
1536703546.2,49898,17.31,74790.8,5.35,-4.09,-8.11,0,*7F
1536703547.45,49899,17.31,74790.3,5.35,-4.05,-8.07,0,*75
1536703548.67,49900,17.31,74788.5,5.37,-3.95,-7.91,0,*78
1536703549.88,49901,17.31,74792.0,5.37,-3.87,-7.77,0,*72
1536703551.11,49902,17.31,74788.5,5.37,-3.75,-7.65,0,*7F
1536703552.35,49903,17.31,74786.5,5.37,-3.63,-7.65,0,*79
1536703553.62,49904,17.31,74788.8,5.35,-3.55,-7.43,0,*7D
1536703554.86,49905,17.31,74790.5,5.35,-3.43,-7.49,0,*71
1536703556.1,49906,17.31,74790.5,5.35,-3.43,-7.49,0,*72
1536703557.28,49907,17.31,74790.3,5.41,-3.35,-7.53,0,*7A
1536703558.5,49908,17.31,74788.5,5.37,-3.39,-7.69,0,*71
1536703559.72,49909,17.31,74788.3,5.37,-3.39,-7.65,0,*7C
1536703560.96,49910,17.31,74790.5,5.37,-3.47,-7.77,0,*7E
1536703562.2,49911,17.31,74790.5,5.37,-3.47,-7.77,0,*7F
1536703563.44,49912,17.31,74788.8,5.35,-3.31,-7.69,0,*70
1536703564.69,49913,17.31,74792.5,5.35,-3.27,-7.57,0,*7B
1536703565.91,49914,17.31,74788.8,5.33,-3.15,-7.43,0,*7E
1536703567.15,49915,17.31,74786.8,5.35,-3.15,-7.27,0,*7B
1536703568.37,49916,17.31,74790.5,5.35,-2.91,-7.15,0,*74
1536703569.61,49917,17.31,74790.5,5.37,-2.63,-6.97,0,*71
1536703570.85,49918,17.31,74790.3,5.37,-2.47,-6.97,0,*78
1536703572.03,49919,17.31,74788.8,5.37,-2.23,-6.85,0,*78
1536703573.25,49920,17.31,74786.5,5.37,-2.07,-6.85,0,*74
1536703574.46,49921,17.31,74788.8,5.37,-1.87,-6.85,0,*7E
1536703575.64,49922,17.31,74790.0,5.37,-1.75,-6.89,0,*7C
1536703576.88,49923,17.25,74790.3,5.35,-1.67,-6.93,0,*77
1536703578.11,49924,17.31,74794.8,5.35,-1.67,-7.05,0,*7E
1536703579.31,49925,17.31,74792.3,5.37,-1.71,-7.15,0,*7B
1536703580.5,49926,17.25,74788.8,5.37,-1.75,-7.23,0,*79
1536703581.77,49927,17.31,74792.0,5.35,-1.87,-7.27,0,*73
1536703583.04,49928,17.31,74790.8,5.35,-1.99,-7.31,0,*74
1536703584.28,49929,17.31,74788.8,5.35,-1.91,-7.19,0,*77
1536703585.49,49930,17.31,74792.0,5.37,-1.95,-7.15,0,*75
1536703586.73,49931,17.31,74790.0,5.37,-1.95,-7.27,0,*75
1536703587.97,49932,17.31,74788.3,5.37,-2.07,-7.27,0,*7E
1536703589.21,49933,17.31,74794.5,5.37,-1.87,-7.43,0,*76
1536703590.43,49934,17.31,74788.0,5.37,-1.87,-7.23,0,*77
1536703591.63,49935,17.31,74788.0,5.33,-1.75,-7.05,0,*7B
1536703592.85,49936,17.31,74782.5,5.35,-1.67,-7.19,0,*70
1536703594.08,49937,17.31,74790.5,5.35,-1.75,-7.31,0,*78
1536703595.32,49938,17.31,74792.0,5.37,-1.43,-7.39,0,*78
1536703596.54,49939,17.31,74790.5,5.37,-1.33,-7.57,0,*76
1536703597.74,49940,17.31,74788.3,5.37,-1.33,-7.83,0,*71
1536703599.01,49941,17.31,74788.3,5.35,-1.39,-8.07,0,*7B
1536703600.23,49942,17.31,74786.5,5.37,-1.43,-8.25,0,*77
1536703601.4,49943,17.31,74788.0,5.33,-1.67,-8.67,0,*72
1536703602.65,49944,17.31,74794.0,5.35,-1.87,-8.89,0,*7D
1536703603.86,49945,17.31,74790.5,5.37,-2.07,-8.89,0,*75
1536703605.1,49946,17.31,74792.5,5.35,-2.27,-9.11,0,*76
1536703606.34,49947,17.31,74790.3,5.35,-2.43,-9.11,0,*75
1536703607.57,49948,17.31,74792.3,5.35,-2.55,-9.31,0,*7F
1536703608.84,49949,17.31,74790.0,5.35,-2.63,-9.11,0,*79
1536703610.08,49950,17.31,74788.0,5.35,-2.91,-9.49,0,*71
1536703611.3,49951,17.31,74788.8,5.37,-2.99,-9.53,0,*71
1536703612.51,49952,17.31,74792.5,5.37,-3.11,-9.57,0,*77
1536703613.72,49953,17.31,74794.3,5.37,-3.27,-9.57,0,*73
1536703614.94,49954,17.31,74792.8,5.37,-3.39,-9.57,0,*7B
1536703616.2,49955,17.31,74792.3,5.35,-3.51,-9.61,0,*73
1536703617.47,49956,17.31,74788.5,5.35,-3.63,-9.61,0,*71
1536703618.72,49957,17.31,74794.3,5.35,-3.79,-9.61,0,*7B
1536703619.96,49958,17.31,74794.0,5.35,-3.87,-9.57,0,*70
1536703621.21,49959,17.31,74792.5,5.35,-3.91,-9.57,0,*76
1536703622.46,49960,17.31,74794.0,5.35,-3.91,-9.45,0,*7F
1536703623.71,49961,17.31,74788.0,5.35,-3.91,-9.49,0,*72
1536703624.98,49962,17.31,74788.0,5.35,-4.01,-9.61,0,*75
1536703626.2,49963,17.31,74788.8,5.33,-4.01,-9.75,0,*77
1536703627.41,49964,17.31,74790.5,5.33,-4.05,-9.83,0,*7D
1536703628.63,49965,17.31,74792.0,5.35,-4.09,-9.89,0,*7C
1536703629.85,49966,17.31,74792.8,5.35,-4.17,-10.05,0,*4C
1536703631.08,49967,17.31,74790.5,5.35,-4.33,-10.31,0,*4C
1536703632.29,49968,17.31,74794.0,5.33,-4.53,-10.41,0,*44
1536703633.52,49969,17.31,74790.5,5.33,-4.57,-10.41,0,*41
1536703634.76,49970,17.31,74788.3,5.35,-4.77,-10.45,0,*49
1536703636.0,49971,17.31,74788.3,5.35,-4.77,-10.31,0,*4B
1536703637.21,49972,17.31,74788.3,5.33,-4.77,-10.05,0,*49
1536703638.47,49973,17.31,74792.0,5.35,-4.77,-9.83,0,*78
1536703639.7,49974,17.31,74794.3,5.35,-4.77,-9.71,0,*72
1536703640.91,49975,17.31,74790.5,5.33,-4.65,-9.49,0,*7D
1536703642.09,49976,17.31,74794.0,5.33,-4.41,-9.23,0,*74
1536703643.31,49977,17.31,74794.0,5.35,-4.17,-9.01,0,*70
1536703644.53,49978,17.31,74792.0,5.35,-4.05,-8.93,0,*76
1536703645.74,49979,17.31,74790.0,5.35,-3.87,-8.67,0,*71
1536703646.97,49980,17.31,74790.0,5.35,-3.55,-8.55,0,*79
1536703648.18,49981,17.31,74794.0,5.35,-3.31,-8.63,0,*7F
1536703649.39,49982,17.31,74792.3,5.33,-3.03,-8.51,0,*7A
1536703650.59,49983,17.31,74788.8,5.31,-2.91,-8.59,0,*7B
1536703651.77,49984,17.31,74790.8,5.33,-2.87,-8.63,0,*70
1536703652.96,49985,17.31,74788.0,5.33,-2.87,-8.89,0,*75
1536703654.14,49986,17.31,74790.8,5.33,-2.91,-8.93,0,*7A
1536703655.33,49987,17.31,74794.0,5.33,-3.03,-8.93,0,*71
1536703656.53,49988,17.31,74792.8,5.33,-3.03,-8.81,0,*7D
1536703657.75,49989,17.31,74788.3,5.33,-3.15,-8.51,0,*76
1536703658.97,49990,17.31,74790.0,5.33,-3.15,-8.07,0,*7D
1536703660.18,49991,17.31,74790.0,5.33,-2.99,-7.61,0,*76
1536703661.42,49992,17.31,74788.8,5.35,-2.55,-7.15,0,*70
1536703662.6,49993,17.31,74792.5,5.33,-2.35,-6.69,0,*7B
1536703663.82,49994,17.31,74790.0,5.33,-2.03,-6.35,0,*70
1536703665.0,49995,17.31,74794.0,5.33,-1.79,-5.97,0,*74
1536703666.21,49996,17.31,74794.0,5.33,-1.63,-5.73,0,*76
1536703667.42,49997,17.31,74794.8,5.33,-1.39,-5.43,0,*7B
1536703668.66,49998,17.25,74788.8,5.35,-1.25,-5.31,0,*7A
1536703669.89,49999,17.31,74794.5,5.33,-1.17,-5.19,0,*76
1536703671.13,50000,17.31,74788.5,5.31,-1.17,-5.11,0,*7D
1536703672.4,50001,17.31,74792.0,5.31,-1.05,-5.15,0,*7B
1536703673.65,50002,17.31,74790.8,5.33,-1.01,-5.31,0,*78
1536703674.89,50003,17.31,74794.8,5.33,-1.01,-5.31,0,*79
1536703676.13,50004,17.31,74794.5,5.33,-0.89,-5.23,0,*4C
1536703677.33,50005,17.31,74792.0,5.33,-0.89,-5.47,0,*4F
1536703678.59,50006,17.31,74790.3,5.35,-0.93,-5.77,0,*42
1536703679.85,50007,17.31,74796.3,5.35,-1.01,-6.23,0,*7B
1536703681.04,50008,17.31,74792.8,5.33,-1.25,-6.55,0,*75
1536703682.28,50009,17.31,74792.0,5.33,-1.39,-6.93,0,*73
1536703683.46,50010,17.31,74796.0,5.33,-1.63,-7.19,0,*77
1536703684.65,50011,17.31,74794.0,5.33,-1.79,-7.49,0,*78
1536703685.92,50012,17.31,74796.0,5.35,-2.11,-7.73,0,*79
1536703687.13,50013,17.31,74794.0,5.33,-2.51,-8.21,0,*72
1536703688.32,50014,17.31,74792.8,5.33,-3.11,-8.89,0,*72
1536703689.53,50015,17.31,74792.8,5.33,-3.87,-9.37,0,*78
1536703690.76,50016,17.31,74798.0,5.33,-4.21,-9.45,0,*75
1536703691.99,50017,17.31,74794.8,5.35,-4.57,-9.57,0,*70
1536703693.2,50018,17.31,74796.5,5.33,-4.93,-9.89,0,*72
1536703694.42,50019,17.31,74794.5,5.33,-5.31,-10.15,0,*47
1536703695.64,50020,17.31,74798.8,5.33,-5.77,-10.53,0,*4D
1536703696.83,50021,17.31,74794.3,5.33,-6.69,-11.15,0,*43
1536703698.07,50022,17.31,74796.0,5.33,-7.31,-11.37,0,*4C
1536703699.28,50023,17.31,74792.0,5.33,-7.83,-11.51,0,*44
1536703700.53,50024,17.31,74792.3,5.33,-8.11,-11.55,0,*43
1536703701.72,50025,17.31,74792.0,5.33,-8.29,-11.41,0,*4C
1536703702.93,50026,17.31,74794.0,5.33,-8.29,-11.51,0,*4E
1536703704.12,50027,17.31,74796.0,5.33,-8.29,-11.41,0,*4E
1536703705.35,50028,17.31,74792.5,5.31,-8.25,-11.41,0,*4F
1536703706.62,50029,17.31,74790.5,5.31,-8.11,-11.55,0,*4C
1536703707.89,50030,17.31,74790.8,5.31,-8.11,-11.59,0,*48
1536703709.13,50031,17.31,74794.8,5.31,-7.99,-11.45,0,*4B
1536703710.38,50032,17.31,74792.5,5.31,-7.73,-11.41,0,*48
1536703711.63,50033,17.31,74792.5,5.31,-7.73,-11.45,0,*4D